shoulder
new_line
new_line
first
second
third
Al di la della Luna; Beyond the Moon; Astrophotography; Astrofotografia; Danilo Pivato
 
 
         
         
2010

Orbital Elements

Epoch 2010 June 13.0 TT = JDT 2455360.5
T 2010 July 2.67930 TT                                                             MPC
q   0.4050654              (2000.0)                             P                    Q
z  -0.0009039       Peri.  130.69723           -0.41486362     -0.69132185
 +/-0.0000019      Node  322.62252          +0.19335374     +0.56833383
e   1.0003661      Incl.      77.03007          +0.88910208     -0.44617347                       
 
         
         
2010.05.22
Video of the 2010.05.22 [61,3Mb]
2010.05.23
2010.06.03
2010.06.05
         
Video of the: 2010.06.05 [61,39Mb]
2010.06.12
2010.06.19
2010.06.19 Sduf + d3
         
       
       
         
         
         

 

       
 
Since: 01/01/2004
 
       
 
Since: 01/11/2010